^^
Station Historical Data
 
Daily Summary for October 25, 2014 Units:  English    Metric   Both
« Previous Day
Next Day »
Daily Weekly Monthly Yearly Custom
  Current: High: Low: Average:
Temperature: 65.4 °F 79.4 °F 59.4 °F 68.7 °F
Dew Point: 58.0 °F 61.6 °F 54.1 °F 57.2 °F
Humidity: 77% 87% 46% 69%
Wind Speed: 0.0mph 5.0mph 0.0mph 1.4mph
Wind Gust: 1.0mph 10.0mph - -
WindCalm - - SW
Pressure: 29.98 in 29.99 in 29.90 in -
Precipitation: 0.00 in      
Historical Graphs
 
 
Tabular Data for October 25, 2014
Time Temperature Dew Point Pressure Wind Wind Speed Wind Gust Humidity Rainfall Rate (Hourly) solar Conditions
00:00 64.7 °F 58.4 °F 29.95 in NNW 2.0 mph 7.0 mph 80% 0.00 in 0.0 W/m2 BKN
00:10 64.4 °F 58.4 °F 29.95 in North 3.0 mph 9.0 mph 81% 0.00 in 0.0 W/m2 BKN
00:15 64.2 °F 58.6 °F 29.95 in NNW 1.0 mph 6.0 mph 82% 0.00 in 0.0 W/m2 BKN
00:20 64.0 °F 58.4 °F 29.95 in NNW 2.0 mph 5.0 mph 82% 0.00 in 0.0 W/m2 CLR
00:30 63.7 °F 58.1 °F 29.95 in NNW 1.0 mph 5.0 mph 82% 0.00 in 0.0 W/m2 CLR
00:40 63.3 °F 58.0 °F 29.95 in NNW 1.0 mph 4.0 mph 83% 0.00 in 0.0 W/m2 CLR
00:45 63.2 °F 57.9 °F 29.95 in North 1.0 mph 3.0 mph 83% 0.00 in 0.0 W/m2 CLR
00:50 63.0 °F 58.1 °F 29.94 in NNW 1.0 mph 2.0 mph 84% 0.00 in 0.0 W/m2 CLR
00:55 62.9 °F 58.0 °F 29.94 in Calm   2.0 mph 84% 0.00 in 0.0 W/m2 CLR
01:00 62.8 °F 57.9 °F 29.94 in NNW 1.0 mph 2.0 mph 84% 0.00 in 0.0 W/m2 CLR
01:10 62.6 °F 58.0 °F 29.94 in Calm   1.0 mph 85% 0.00 in 0.0 W/m2 CLR
01:15 62.4 °F 57.8 °F 29.94 in Calm   1.0 mph 85% 0.00 in 0.0 W/m2 CLR
01:25 62.3 °F 57.7 °F 29.94 in NNW 1.0 mph 3.0 mph 85% 0.00 in 0.0 W/m2 CLR
01:30 62.2 °F 57.9 °F 29.94 in Calm   2.0 mph 86% 0.00 in 0.0 W/m2 CLR
01:40 62.0 °F 57.8 °F 29.94 in NNW 1.0 mph 2.0 mph 86% 0.00 in 0.0 W/m2 CLR
01:45 61.9 °F 57.7 °F 29.94 in Calm   2.0 mph 86% 0.00 in 0.0 W/m2 CLR
01:50 61.8 °F 57.6 °F 29.94 in Calm   2.0 mph 86% 0.00 in 0.0 W/m2 CLR
01:55 61.8 °F 57.9 °F 29.94 in Calm   1.0 mph 87% 0.00 in 0.0 W/m2 CLR
02:00 61.6 °F 57.7 °F 29.93 in Calm   3.0 mph 87% 0.00 in 0.0 W/m2 CLR
02:10 61.7 °F 57.5 °F 29.94 in NW 1.0 mph 9.0 mph 86% 0.00 in 0.0 W/m2 FEW
02:15 61.7 °F 57.8 °F 29.93 in NW 1.0 mph 4.0 mph 87% 0.00 in 0.0 W/m2 FEW
02:20 61.8 °F 57.6 °F 29.94 in NW 1.0 mph 4.0 mph 86% 0.00 in 0.0 W/m2 FEW
02:25 61.8 °F 57.6 °F 29.93 in WNW 2.0 mph 4.0 mph 86% 0.00 in 0.0 W/m2 FEW
02:30 61.8 °F 57.6 °F 29.94 in WNW 1.0 mph 4.0 mph 86% 0.00 in 0.0 W/m2 FEW
02:40 61.9 °F 57.3 °F 29.93 in Calm   3.0 mph 85% 0.00 in 0.0 W/m2 FEW
02:45 61.9 °F 57.0 °F 29.93 in NW 1.0 mph 5.0 mph 84% 0.00 in 0.0 W/m2 FEW
02:50 62.0 °F 56.8 °F 29.93 in NW 1.0 mph 3.0 mph 83% 0.00 in 0.0 W/m2 FEW
03:00 62.3 °F 56.7 °F 29.93 in NNW 2.0 mph 4.0 mph 82% 0.00 in 0.0 W/m2 FEW
03:10 62.3 °F 56.4 °F 29.93 in NW 1.0 mph 4.0 mph 81% 0.00 in 0.0 W/m2 FEW
03:15 62.3 °F 56.4 °F 29.93 in NNW 1.0 mph 6.0 mph 81% 0.00 in 0.0 W/m2 FEW
03:20 62.2 °F 56.3 °F 29.93 in NW 1.0 mph 3.0 mph 81% 0.00 in 0.0 W/m2 FEW
03:25 62.2 °F 56.3 °F 29.93 in WNW 1.0 mph 4.0 mph 81% 0.00 in 0.0 W/m2 FEW
03:30 62.1 °F 56.2 °F 29.92 in Calm   4.0 mph 81% 0.00 in 0.0 W/m2 FEW
03:40 61.9 °F 56.3 °F 29.92 in Calm   3.0 mph 82% 0.00 in 0.0 W/m2 FEW
03:45 61.8 °F 56.6 °F 29.92 in Calm   3.0 mph 83% 0.00 in 0.0 W/m2 FEW
03:50 61.6 °F 56.3 °F 29.92 in NNW 1.0 mph 3.0 mph 83% 0.00 in 0.0 W/m2 FEW
03:55 61.4 °F 56.5 °F 29.92 in NNW 1.0 mph 3.0 mph 84% 0.00 in 0.0 W/m2 FEW
04:00 61.3 °F 56.4 °F 29.93 in Calm   1.0 mph 84% 0.00 in 0.0 W/m2 FEW
04:10 61.0 °F 56.5 °F 29.92 in NW 1.0 mph 4.0 mph 85% 0.00 in 0.0 W/m2 FEW
04:15 60.9 °F 56.3 °F 29.92 in Calm   4.0 mph 85% 0.00 in 0.0 W/m2 FEW
04:20 60.7 °F 56.5 °F 29.92 in NNW 1.0 mph 3.0 mph 86% 0.00 in 0.0 W/m2 FEW
04:30 60.6 °F 55.7 °F 29.92 in NNW 1.0 mph 4.0 mph 84% 0.00 in 0.0 W/m2 FEW
04:40 60.5 °F 55.3 °F 29.93 in NNW 1.0 mph 2.0 mph 83% 0.00 in 0.0 W/m2 FEW
04:45 60.6 °F 55.4 °F 29.92 in NNW 2.0 mph 4.0 mph 83% 0.00 in 0.0 W/m2 FEW
04:50 60.7 °F 55.2 °F 29.93 in NNW 1.0 mph 4.0 mph 82% 0.00 in 0.0 W/m2 FEW
04:55 60.7 °F 54.9 °F 29.93 in NNW 1.0 mph 3.0 mph 81% 0.00 in 0.0 W/m2 FEW
05:00 60.8 °F 54.6 °F 29.93 in NNW 1.0 mph 3.0 mph 80% 0.00 in 0.0 W/m2 FEW
05:10 60.8 °F 54.6 °F 29.92 in NNW 1.0 mph 2.0 mph 80% 0.00 in 0.0 W/m2 BKN
05:15 60.7 °F 54.5 °F 29.92 in NNW 1.0 mph 2.0 mph 80% 0.00 in 0.0 W/m2 BKN
05:20 60.6 °F 54.7 °F 29.92 in NNW 1.0 mph 2.0 mph 81% 0.00 in 0.0 W/m2 BKN
05:25 60.5 °F 54.6 °F 29.93 in NNW 1.0 mph 3.0 mph 81% 0.00 in 0.0 W/m2 BKN
05:30 60.5 °F 54.6 °F 29.93 in NNW 1.0 mph 2.0 mph 81% 0.00 in 0.0 W/m2 BKN
05:40 60.2 °F 54.4 °F 29.93 in North 1.0 mph 2.0 mph 81% 0.00 in 0.0 W/m2 BKN
05:45 60.0 °F 54.5 °F 29.93 in Calm   2.0 mph 82% 0.00 in 0.0 W/m2 BKN
05:50 59.9 °F 54.4 °F 29.93 in Calm   2.0 mph 82% 0.00 in 0.0 W/m2 BKN
06:00 59.8 °F 54.6 °F 29.93 in Calm   2.0 mph 83% 0.00 in 0.0 W/m2 BKN
06:10 59.9 °F 54.7 °F 29.94 in Calm   1.0 mph 83% 0.00 in 0.0 W/m2 FEW
06:15 60.0 °F 54.8 °F 29.94 in North 1.0 mph 2.0 mph 83% 0.00 in 0.0 W/m2 FEW
06:20 60.2 °F 55.0 °F 29.94 in WNW 1.0 mph 3.0 mph 83% 0.00 in 0.0 W/m2 FEW
06:30 60.4 °F 54.9 °F 29.94 in Calm   2.0 mph 82% 0.00 in 0.0 W/m2 FEW
06:40 60.5 °F 54.6 °F 29.94 in NW 1.0 mph 3.0 mph 81% 0.00 in 0.0 W/m2 FEW
06:45 60.5 °F 54.6 °F 29.94 in Calm   2.0 mph 81% 0.00 in 0.0 W/m2 FEW
06:55 60.4 °F 54.5 °F 29.95 in Calm   2.0 mph 81% 0.00 in 0.0 W/m2 FEW
07:00 60.3 °F 54.4 °F 29.95 in NNW 1.0 mph 3.0 mph 81% 0.00 in 0.0 W/m2 FEW
07:10 60.1 °F 54.2 °F 29.95 in NNW 1.0 mph 3.0 mph 81% 0.00 in 0.0 W/m2 SCT
07:15 60.1 °F 54.2 °F 29.95 in NW 1.0 mph 3.0 mph 81% 0.00 in 0.0 W/m2 SCT
07:20 60.1 °F 54.2 °F 29.95 in Calm   2.0 mph 81% 0.00 in 0.0 W/m2 SCT
07:25 60.0 °F 54.5 °F 29.95 in Calm   2.0 mph 82% 0.00 in 0.0 W/m2 SCT
07:30 59.9 °F 54.4 °F 29.95 in Calm   2.0 mph 82% 0.00 in 0.0 W/m2 SCT
07:40 59.6 °F 54.1 °F 29.95 in NNW 1.0 mph 2.0 mph 82% 0.00 in 0.0 W/m2 SCT
07:45 59.6 °F 54.4 °F 29.95 in NNW 1.0 mph 2.0 mph 83% 0.00 in 0.0 W/m2 SCT
07:55 59.4 °F 54.2 °F 29.95 in Calm   2.0 mph 83% 0.00 in 0.0 W/m2 SCT
08:00 59.4 °F 54.6 °F 29.95 in Calm   4.0 mph 84% 0.00 in 0.0 W/m2 SCT
08:10 59.6 °F 54.8 °F 29.95 in West 1.0 mph 3.0 mph 84% 0.00 in 0.0 W/m2 CLR
08:15 59.8 °F 54.7 °F 29.96 in Calm   2.0 mph 83% 0.00 in 0.0 W/m2 CLR
08:20 59.9 °F 54.8 °F 29.96 in Calm   2.0 mph 83% 0.00 in 0.0 W/m2 CLR
08:25 60.2 °F 55.0 °F 29.96 in Calm   2.0 mph 83% 0.00 in 0.0 W/m2 CLR
08:30 60.3 °F 54.8 °F 29.96 in WNW 1.0 mph 2.0 mph 82% 0.00 in 0.0 W/m2 CLR
08:40 61.0 °F 55.1 °F 29.96 in WNW 1.0 mph 3.0 mph 81% 0.00 in 0.0 W/m2 CLR
08:45 61.4 °F 55.1 °F 29.96 in NW 2.0 mph 4.0 mph 80% 0.00 in 0.0 W/m2 CLR
08:50 61.9 °F 55.3 °F 29.96 in WNW 1.0 mph 4.0 mph 79% 0.00 in 0.0 W/m2 CLR
09:00 63.0 °F 55.4 °F 29.97 in NNW 1.0 mph 5.0 mph 76% 0.00 in 0.0 W/m2 CLR
09:10 64.0 °F 55.5 °F 29.97 in NNW 2.0 mph 5.0 mph 74% 0.00 in 0.0 W/m2 CLR
09:15 64.5 °F 56.0 °F 29.97 in NNW 2.0 mph 5.0 mph 74% 0.00 in 0.0 W/m2 CLR
09:25 65.1 °F 55.9 °F 29.97 in North 2.0 mph 6.0 mph 72% 0.00 in 0.0 W/m2 CLR
09:30 65.6 °F 56.7 °F 29.97 in NNW 2.0 mph 3.0 mph 73% 0.00 in 0.0 W/m2 CLR
09:40 66.4 °F 56.3 °F 29.97 in NNW 2.0 mph 6.0 mph 70% 0.00 in 0.0 W/m2 CLR
09:45 66.9 °F 56.4 °F 29.97 in North 3.0 mph 5.0 mph 69% 0.00 in 0.0 W/m2 CLR
09:50 67.3 °F 56.8 °F 29.97 in NNE 3.0 mph 5.0 mph 69% 0.00 in 0.0 W/m2 CLR
10:00 68.1 °F 56.7 °F 29.97 in North 2.0 mph 7.0 mph 67% 0.00 in 0.0 W/m2 CLR
10:10 69.0 °F 56.4 °F 29.97 in NNE 3.0 mph 10.0 mph 64% 0.00 in 0.0 W/m2 CLR
10:15 69.4 °F 57.1 °F 29.97 in NNE 2.0 mph 10.0 mph 65% 0.00 in 0.0 W/m2 CLR
10:25 70.0 °F 56.9 °F 29.97 in NW 3.0 mph 7.0 mph 63% 0.00 in 0.0 W/m2 CLR
10:30 70.2 °F 57.0 °F 29.97 in North 3.0 mph 7.0 mph 63% 0.00 in 0.0 W/m2 CLR
10:40 70.8 °F 56.7 °F 29.97 in NW 2.0 mph 5.0 mph 61% 0.00 in 0.0 W/m2 CLR
10:45 71.1 °F 57.0 °F 29.97 in NW 2.0 mph 7.0 mph 61% 0.00 in 0.0 W/m2 CLR
10:55 71.8 °F 56.7 °F 29.98 in NW 2.0 mph 5.0 mph 59% 0.00 in 0.0 W/m2 CLR
11:00 72.1 °F 56.5 °F 29.98 in NW 2.0 mph 6.0 mph 58% 0.00 in 0.0 W/m2 CLR
11:10 72.3 °F 56.7 °F 29.98 in NNW 3.0 mph 7.0 mph 58% 0.00 in 0.0 W/m2 CLR
11:15 72.7 °F 56.1 °F 29.98 in North 3.0 mph 6.0 mph 56% 0.00 in 0.0 W/m2 CLR
11:20 72.9 °F 56.3 °F 29.98 in NNW 3.0 mph 8.0 mph 56% 0.00 in 0.0 W/m2 CLR
11:25 73.1 °F 56.0 °F 29.98 in NW 2.0 mph 8.0 mph 55% 0.00 in 0.0 W/m2 CLR
11:30 73.3 °F 56.2 °F 29.98 in NW 2.0 mph 7.0 mph 55% 0.00 in 0.0 W/m2 CLR
11:40 73.6 °F 55.9 °F 29.98 in NNW 2.0 mph 6.0 mph 54% 0.00 in 0.0 W/m2 CLR
11:45 73.8 °F 56.2 °F 29.98 in NNW 5.0 mph 9.0 mph 54% 0.00 in 0.0 W/m2 CLR
11:50 73.8 °F 55.1 °F 29.98 in North 3.0 mph 7.0 mph 52% 0.00 in 0.0 W/m2 CLR
11:55 74.3 °F 56.1 °F 29.98 in NNW 2.0 mph 7.0 mph 53% 0.00 in 0.0 W/m2 CLR
12:00 74.6 °F 57.3 °F 29.98 in WNW 2.0 mph 6.0 mph 55% 0.00 in 0.0 W/m2 CLR
12:10 75.1 °F 57.8 °F 29.97 in NW 2.0 mph 6.0 mph 55% 0.00 in 0.0 W/m2 CLR
12:15 75.2 °F 56.9 °F 29.97 in North 2.0 mph 6.0 mph 53% 0.00 in 0.0 W/m2 CLR
12:20 75.3 °F 57.0 °F 29.96 in NNE 3.0 mph 7.0 mph 53% 0.00 in 0.0 W/m2 CLR
12:25 75.1 °F 58.3 °F 29.96 in NW 1.0 mph 8.0 mph 56% 0.00 in 0.0 W/m2 CLR
12:30 75.4 °F 57.6 °F 29.96 in NNW 3.0 mph 7.0 mph 54% 0.00 in 0.0 W/m2 CLR
12:40 75.5 °F 57.2 °F 29.96 in North 5.0 mph 7.0 mph 53% 0.00 in 0.0 W/m2 CLR
12:45 75.7 °F 57.9 °F 29.95 in North 2.0 mph 5.0 mph 54% 0.00 in 0.0 W/m2 CLR
12:55 76.2 °F 57.3 °F 29.95 in NNW 2.0 mph 6.0 mph 52% 0.00 in 0.0 W/m2 CLR
13:00 76.0 °F 58.2 °F 29.95 in NW 3.0 mph 6.0 mph 54% 0.00 in 0.0 W/m2 CLR
13:10 76.5 °F 57.6 °F 29.95 in NW 2.0 mph 6.0 mph 52% 0.00 in 0.0 W/m2 CLR
13:15 76.5 °F 57.6 °F 29.94 in NNW 3.0 mph 6.0 mph 52% 0.00 in 0.0 W/m2 CLR
13:25 76.8 °F 58.9 °F 29.94 in NW 1.0 mph 7.0 mph 54% 0.00 in 0.0 W/m2 CLR
13:30 77.0 °F 57.0 °F 29.94 in NNW 5.0 mph 10.0 mph 50% 0.00 in 0.0 W/m2 CLR
13:40 77.0 °F 56.9 °F 29.94 in North 5.0 mph 8.0 mph 50% 0.00 in 0.0 W/m2 CLR
13:45 77.3 °F 58.3 °F 29.93 in NNE 1.0 mph 5.0 mph 52% 0.00 in 0.0 W/m2 CLR
13:50 78.1 °F 58.5 °F 29.93 in NNE 1.0 mph 5.0 mph 51% 0.00 in 0.0 W/m2 CLR
13:55 78.0 °F 58.4 °F 29.93 in NNE 1.0 mph 5.0 mph 51% 0.00 in 0.0 W/m2 CLR
14:00 77.8 °F 57.7 °F 29.93 in NNW 2.0 mph 7.0 mph 50% 0.00 in 0.0 W/m2 CLR
14:10 77.0 °F 58.0 °F 29.93 in West 2.0 mph 6.0 mph 52% 0.00 in 0.0 W/m2 CLR
14:15 77.2 °F 58.2 °F 29.93 in West 3.0 mph 6.0 mph 52% 0.00 in 0.0 W/m2 CLR
14:20 77.4 °F 57.8 °F 29.92 in WNW 1.0 mph 6.0 mph 51% 0.00 in 0.0 W/m2 CLR
14:30 78.0 °F 56.7 °F 29.92 in North 3.0 mph 7.0 mph 48% 0.00 in 0.0 W/m2 CLR
14:40 77.7 °F 57.0 °F 29.92 in NE 3.0 mph 5.0 mph 49% 0.00 in 0.0 W/m2 CLR
14:45 77.8 °F 56.5 °F 29.92 in NE 2.0 mph 6.0 mph 48% 0.00 in 0.0 W/m2 CLR
14:50 77.5 °F 56.8 °F 29.91 in ENE 2.0 mph 6.0 mph 49% 0.00 in 0.0 W/m2 CLR
14:55 77.7 °F 57.0 °F 29.91 in ENE 2.0 mph 6.0 mph 49% 0.00 in 0.0 W/m2 CLR
15:00 78.1 °F 57.4 °F 29.91 in ENE 2.0 mph 8.0 mph 49% 0.00 in 0.0 W/m2 CLR
15:10 78.3 °F 57.0 °F 29.91 in NE 5.0 mph 7.0 mph 48% 0.00 in 0.0 W/m2 CLR
15:15 78.1 °F 57.4 °F 29.91 in NE 1.0 mph 6.0 mph 49% 0.00 in 0.0 W/m2 CLR
15:20 78.5 °F 58.3 °F 29.91 in Calm   4.0 mph 50% 0.00 in 0.0 W/m2 CLR
15:25 78.4 °F 58.3 °F 29.91 in NW 1.0 mph 5.0 mph 50% 0.00 in 0.0 W/m2 CLR
15:30 78.5 °F 57.7 °F 29.91 in NNW 1.0 mph 5.0 mph 49% 0.00 in 0.0 W/m2 CLR
15:40 78.5 °F 57.2 °F 29.91 in NNW 3.0 mph 9.0 mph 48% 0.00 in 0.0 W/m2 CLR
15:45 78.6 °F 57.3 °F 29.91 in North 1.0 mph 5.0 mph 48% 0.00 in 0.0 W/m2 CLR
15:50 78.7 °F 57.3 °F 29.91 in NNE 2.0 mph 4.0 mph 48% 0.00 in 0.0 W/m2 CLR
15:55 78.6 °F 57.8 °F 29.91 in NNW 2.0 mph 5.0 mph 49% 0.00 in 0.0 W/m2 CLR
16:00 78.6 °F 56.7 °F 29.91 in NNW 1.0 mph 6.0 mph 47% 0.00 in 0.0 W/m2 CLR
16:10 79.2 °F 57.8 °F 29.91 in NE 1.0 mph 3.0 mph 48% 0.00 in 0.0 W/m2 CLR
16:15 79.1 °F 58.3 °F 29.90 in North 1.0 mph 3.0 mph 49% 0.00 in 0.0 W/m2 CLR
16:20 79.0 °F 57.6 °F 29.90 in North 2.0 mph 6.0 mph 48% 0.00 in 0.0 W/m2 CLR
16:25 78.7 °F 57.4 °F 29.90 in NE 5.0 mph 10.0 mph 48% 0.00 in 0.0 W/m2 CLR
16:30 78.9 °F 56.9 °F 29.91 in ENE 3.0 mph 6.0 mph 47% 0.00 in 0.0 W/m2 CLR
16:40 78.7 °F 56.2 °F 29.91 in ENE 1.0 mph 6.0 mph 46% 0.00 in 0.0 W/m2 CLR
16:45 78.8 °F 56.9 °F 29.91 in NE 2.0 mph 5.0 mph 47% 0.00 in 0.0 W/m2 CLR
16:50 78.8 °F 56.9 °F 29.91 in North 2.0 mph 6.0 mph 47% 0.00 in 0.0 W/m2 CLR
16:55 79.1 °F 57.1 °F 29.91 in North 1.0 mph 3.0 mph 47% 0.00 in 0.0 W/m2 CLR
17:00 79.3 °F 57.3 °F 29.91 in North 5.0 mph 8.0 mph 47% 0.00 in 0.0 W/m2 CLR
17:10 79.3 °F 57.3 °F 29.91 in North 1.0 mph 3.0 mph 47% 0.00 in 0.0 W/m2 CLR
17:15 79.2 °F 56.7 °F 29.91 in NE 3.0 mph 6.0 mph 46% 0.00 in 0.0 W/m2 CLR
17:25 79.2 °F 57.2 °F 29.91 in ENE 2.0 mph 6.0 mph 47% 0.00 in 0.0 W/m2 CLR
17:30 79.2 °F 57.2 °F 29.91 in Calm   4.0 mph 47% 0.00 in 0.0 W/m2 CLR
17:40 79.4 °F 56.8 °F 29.91 in NW 1.0 mph 4.0 mph 46% 0.00 in 0.0 W/m2 CLR
17:45 79.1 °F 56.5 °F 29.91 in NNW 3.0 mph 5.0 mph 46% 0.00 in 0.0 W/m2 CLR
17:50 78.5 °F 57.1 °F 29.91 in North 2.0 mph 5.0 mph 48% 0.00 in 0.0 W/m2 CLR
17:55 78.4 °F 56.5 °F 29.91 in NNW 2.0 mph 5.0 mph 47% 0.00 in 0.0 W/m2 CLR
18:00 78.5 °F 57.2 °F 29.91 in NNW 1.0 mph 3.0 mph 48% 0.00 in 0.0 W/m2 CLR
18:10 78.0 °F 56.8 °F 29.91 in NNW 3.0 mph 6.0 mph 48% 0.00 in 0.0 W/m2 CLR
18:15 77.7 °F 57.6 °F 29.92 in North 1.0 mph 5.0 mph 50% 0.00 in 0.0 W/m2 CLR
18:20 77.4 °F 57.3 °F 29.92 in North 2.0 mph 5.0 mph 50% 0.00 in 0.0 W/m2 FEW
18:30 76.3 °F 56.8 °F 29.92 in NNW 1.0 mph 4.0 mph 51% 0.00 in 0.0 W/m2 FEW
18:40 75.2 °F 57.9 °F 29.92 in North 1.0 mph 3.0 mph 55% 0.00 in 0.0 W/m2 FEW
18:45 74.6 °F 58.4 °F 29.92 in NE 1.0 mph 3.0 mph 57% 0.00 in 0.0 W/m2 FEW
18:55 73.6 °F 60.3 °F 29.92 in ENE 1.0 mph 4.0 mph 63% 0.00 in 0.0 W/m2 FEW
19:00 73.2 °F 60.3 °F 29.92 in ENE 2.0 mph 7.0 mph 64% 0.00 in 0.0 W/m2 FEW
19:10 72.6 °F 61.0 °F 29.92 in ENE 1.0 mph 5.0 mph 67% 0.00 in 0.0 W/m2 CLR
19:15 72.3 °F 60.7 °F 29.92 in ENE 2.0 mph 5.0 mph 67% 0.00 in 0.0 W/m2 CLR
19:20 72.1 °F 61.0 °F 29.93 in ENE 2.0 mph 3.0 mph 68% 0.00 in 0.0 W/m2 CLR
19:30 71.6 °F 60.8 °F 29.93 in NE 1.0 mph 3.0 mph 69% 0.00 in 0.0 W/m2 CLR
19:40 71.1 °F 60.8 °F 29.93 in Calm   3.0 mph 70% 0.00 in 0.0 W/m2 CLR
19:45 70.9 °F 61.0 °F 29.94 in NE 2.0 mph 5.0 mph 71% 0.00 in 0.0 W/m2 CLR
19:50 70.8 °F 60.9 °F 29.94 in NE 1.0 mph 5.0 mph 71% 0.00 in 0.0 W/m2 CLR
19:55 70.6 °F 61.2 °F 29.94 in NE 1.0 mph 5.0 mph 72% 0.00 in 0.0 W/m2 CLR
20:00 70.6 °F 61.1 °F 29.94 in Calm   3.0 mph 72% 0.00 in 0.0 W/m2 CLR
20:10 70.3 °F 61.6 °F 29.95 in NE 1.0 mph 3.0 mph 74% 0.00 in 0.0 W/m2 CLR
20:15 70.1 °F 61.4 °F 29.95 in Calm   3.0 mph 74% 0.00 in 0.0 W/m2 CLR
20:20 69.8 °F 61.1 °F 29.95 in NNE 1.0 mph 3.0 mph 74% 0.00 in 0.0 W/m2 CLR
20:30 69.4 °F 61.1 °F 29.95 in NNE 1.0 mph 3.0 mph 75% 0.00 in 0.0 W/m2 CLR
20:40 69.0 °F 61.1 °F 29.95 in NE 1.0 mph 4.0 mph 76% 0.00 in 0.0 W/m2 CLR
20:45 68.8 °F 61.0 °F 29.96 in NNE 1.0 mph 4.0 mph 76% 0.00 in 0.0 W/m2 CLR
20:50 68.7 °F 60.8 °F 29.96 in NNE 1.0 mph 3.0 mph 76% 0.00 in 0.0 W/m2 CLR
20:55 68.5 °F 60.6 °F 29.96 in NE 1.0 mph 3.0 mph 76% 0.00 in 0.0 W/m2 CLR
21:00 68.3 °F 60.5 °F 29.96 in NNE 2.0 mph 5.0 mph 76% 0.00 in 0.0 W/m2 CLR
21:10 68.1 °F 60.2 °F 29.96 in NE 1.0 mph 4.0 mph 76% 0.00 in 0.0 W/m2 CLR
21:15 68.0 °F 60.6 °F 29.96 in NE 1.0 mph 3.0 mph 77% 0.00 in 0.0 W/m2 CLR
21:20 67.9 °F 60.4 °F 29.96 in NE 1.0 mph 3.0 mph 77% 0.00 in 0.0 W/m2 CLR
21:30 67.6 °F 60.1 °F 29.97 in North 1.0 mph 2.0 mph 77% 0.00 in 0.0 W/m2 CLR
21:40 67.2 °F 59.4 °F 29.97 in North 1.0 mph 3.0 mph 76% 0.00 in 0.0 W/m2 CLR
21:45 67.1 °F 59.3 °F 29.97 in NNE 1.0 mph 2.0 mph 76% 0.00 in 0.0 W/m2 CLR
21:50 67.0 °F 59.2 °F 29.97 in North 1.0 mph 2.0 mph 76% 0.00 in 0.0 W/m2 CLR
22:00 66.8 °F 59.0 °F 29.98 in NNW 1.0 mph 3.0 mph 76% 0.00 in 0.0 W/m2 CLR
22:10 66.6 °F 58.4 °F 29.98 in Calm   2.0 mph 75% 0.00 in 0.0 W/m2 CLR
22:15 66.4 °F 58.6 °F 29.98 in North 1.0 mph 2.0 mph 76% 0.00 in 0.0 W/m2 CLR
22:20 66.3 °F 58.2 °F 29.98 in Calm   1.0 mph 75% 0.00 in 0.0 W/m2 CLR
22:25 66.2 °F 58.4 °F 29.98 in Calm   1.0 mph 76% 0.00 in 0.0 W/m2 CLR
22:30 66.0 °F 58.2 °F 29.98 in Calm   1.0 mph 76% 0.00 in 0.0 W/m2 CLR
22:40 65.6 °F 58.2 °F 29.98 in Calm   1.0 mph 77% 0.00 in 0.0 W/m2 CLR
22:45 65.5 °F 58.1 °F 29.99 in Calm   1.0 mph 77% 0.00 in 0.0 W/m2 CLR
22:50 65.4 °F 58.0 °F 29.98 in Calm   1.0 mph 77% 0.00 in 0.0 W/m2 CLR
Lake Mary, FL, USA
Compliments of Weather Underground